Zurück zum Katalog

DMSP 5D-2 F13 DEB

AktivPO
NORAD 42299·DEBRIS·🇺🇸 United States

Gestartet Mar 24, 1995 von Vandenberg Space Force Base

Loading…

Nächste Überflüge (nächste 24 Stunden)

TLE

AktuellSource: Space-Track

Epoche: Sep 14, 2026, 17:45 UTC

1 42299U 95015HR  26257.74016529  .00069678  00000-0  47794-2 0  9991
2 42299  98.6969 353.7759 0007150 316.8652  43.2010 15.05682625574554

Verfolge DMSP 5D-2 F13 DEB in Echtzeit mit AllMySat

Download on the App Store